User: anonymous   Login
Location: Goheenville
(40.9070°N, 79.3720°W)
Time: 21:46:32
(UTC-04:00)
Language:

Cosmos 1727 Rocket - Orbit

View from above orbital plane
View from above orbital plane
View from above satellite
View from above satellite

Ground track
Ground track

The orbit data is extracted from the following two-line orbital elements,

1 16511U 86008B   17177.25771898 +.00000096 +00000-0 +84014-4 0  9992
2 16511 082.9438 213.1903 0022722 256.4364 150.6059 13.75810984577263
Epoch (UTC): 26 June 2017 06:11:06
Eccentricity: 0.0022722
inclination: 82.9438°
perigee height: 962 km
apogee height: 995 km
right ascension of ascending node: 213.1903°
argument of perigee: 256.4364°
revolutions per day: 13.75810984
mean anomaly at epoch: 150.6059°
orbit number at epoch: 57726

The dashed part of the orbit path shows where the satellite is in the earth's shadow,  

DLR